Wind_Speed
5 10 14 10 2 1 3 3 4 4 4 3 3 1 2 2 2 3 8 10 12 15 17 18 19 20 19 17 15 13 14 15 14 15 16 20 24 25 25 25 26 25 25 23 19 18 20 20 22
5 11 11 5 3 4 5 6 5 4 3 0 0 1 2 2 4 4 8 10 11 13 15 16 17 18 17 16 15 15 15 15 16 17 18 19 20 24 27 27 27 26 28 27 22 20 21 24 26
6 9 7 4 5 5 3 5 3 2 1 1 3 1 6 7 8 10 11 12 13 15 16 16 18 18 19 17 16 17 17 17 17 18 19 19 20 21 23 28 30 32 29 30 26 23 24 25 33
7 7 5 5 4 4 4 3 2 1 1 4 6 3 7 8 10 12 13 14 15 15 15 16 17 18 18 18 18 18 19 20 19 18 18 20 22 23 22 23 28 33 32 31 29 28 27 32 25
6 6 6 5 4 3 3 2 1 1 2 3 5 6 7 9 12 14 15 15 16 18 19 19 21 21 20 20 20 20 20 20 21 21 21 21 22 24 25 24 24 31 33 33 32 31 29 29 25
7 5 4 5 3 3 2 1 1 3 4 5 6 7 7 11 13 14 14 15 15 16 18 19 20 20 20 19 21 21 21 22 21 22 22 23 23 25 27 27 27 26 33 33 34 35 32 33 29
7 7 7 5 3 2 3 3 3 5 6 7 7 7 8 11 12 13 14 15 15 16 17 18 17 18 19 20 20 21 22 22 23 24 24 25 25 26 27 28 27 27 26 33 37 36 37 34 29
7 7 6 4 3 2 3 4 6 7 7 8 7 6 8 10 12 13 15 15 16 16 17 18 18 19 18 19 22 22 23 23 23 24 27 27 28 28 27 28 30 27 30 25 34 37 39 37 36
7 7 6 4 2 2 2 5 7 9 8 8 8 8 7 9 10 12 13 14 15 16 16 18 19 20 20 20 20 22 24 24 24 26 26 28 29 30 30 28 30 30 29 31 30 32 46 40 37
8 7 5 4 3 4 4 5 7 11 11 10 8 9 8 9 10 11 14 16 17 16 16 16 17 17 18 19 20 20 22 24 24 25 26 27 29 30 31 32 30 31 30 34 30 34 40 50 43
7 7 5 5 4 5 6 7 9 11 12 10 10 9 9 8 9 11 13 15 15 16 17 17 17 19 20 21 21 21 22 24 25 26 25 27 29 30 31 34 34 33 33 34 37 33 41 50 49
6 6 5 5 5 5 8 9 11 12 14 9 8 9 10 9 7 9 12 13 14 16 18 20 21 21 21 22 24 25 23 25 26 26 26 25 27 30 31 33 34 36 36 34 38 41 42 48 54
5 5 4 6 7 9 10 14 15 14 9 8 9 11 11 9 6 9 11 13 15 18 20 22 22 22 23 24 25 26 26 25 26 27 27 27 27 29 30 32 34 35 37 36 37 42 40 50 43
3 4 5 6 7 11 13 14 15 11 11 10 10 11 12 9 5 7 9 12 17 20 22 23 23 23 22 22 24 26 27 28 29 30 29 29 29 30 31 30 32 34 37 36 35 36 34 47 51
3 5 5 5 12 13 15 10 8 8 14 15 14 13 12 9 6 6 7 11 16 21 24 24 24 26 25 26 27 27 28 29 30 30 31 32 32 31 32 33 32 33 34 34 34 31 31 33 48
4 4 7 11 11 16 17 9 16 13 18 17 15 14 15 11 8 7 9 13 18 25 27 27 24 23 25 28 29 31 32 32 33 32 32 33 33 34 33 34 32 32 30 32 32 29 29 29 39
5 8 11 13 17 18 14 15 14 19 16 13 14 12 16 13 11 9 10 14 21 26 29 29 27 27 30 33 34 34 32 32 33 34 33 34 34 34 35 35 32 30 28 31 29 27 27 29 34
11 13 16 17 21 15 21 14 12 7 9 11 9 11 16 15 13 11 11 15 22 27 31 33 32 36 36 34 36 35 32 33 35 34 34 34 34 34 35 36 33 28 27 30 28 25 25 27 30
14 16 18 22 18 27 21 13 7 6 4 2 2 8 14 16 13 11 12 17 22 26 33 34 32 32 34 37 39 36 32 30 30 34 34 35 36 36 36 37 34 28 25 30 29 25 24 29 32
16 18 18 14 25 25 20 8 9 4 2 2 1 7 13 14 10 9 13 18 22 28 34 33 31 33 39 40 38 37 36 31 28 30 33 34 34 34 34 36 38 32 26 28 32 27 25 28 29
20 14 20 27 26 23 9 5 7 4 2 2 4 7 10 8 7 9 13 19 26 31 35 34 32 35 37 39 38 39 40 39 35 29 28 33 34 34 32 30 35 36 29 26 32 31 26 28 31
18 16 25 24 23 7 9 3 9 5 3 4 8 10 11 11 9 11 16 23 29 34 37 35 34 37 37 38 40 41 41 40 37 36 33 30 32 35 35 33 31 32 30 27 32 34 31 30 31
10 25 21 25 13 10 5 4 6 10 8 10 12 14 15 13 11 13 20 26 31 35 36 36 38 36 39 40 41 42 42 41 40 38 37 36 33 34 36 37 34 33 28 26 29 35 36 33 32
22 20 23 11 7 2 4 2 7 12 14 16 18 18 18 15 10 15 22 29 33 35 36 39 36 35 37 38 40 42 43 43 43 42 40 39 37 33 35 37 35 36 30 25 29 34 38 37 36
25 16 7 4 3 4 4 10 7 12 15 19 19 19 18 16 15 19 26 35 37 37 38 39 37 36 38 41 41 42 44 43 43 43 43 42 40 35 34 36 34 35 35 26 27 31 38 41 40
14 10 2 4 2 5 14 8 5 14 18 22 21 22 21 20 21 25 32 39 37 38 40 38 37 38 40 41 41 42 43 43 43 43 44 43 41 37 33 34 33 33 35 29 28 31 36 42 44
9 6 11 7 8 3 6 8 17 15 20 25 24 27 25 24 24 29 37 37 37 39 36 38 39 39 39 40 42 43 43 44 43 42 42 43 39 36 33 32 33 33 32 32 29 31 35 42 46
16 11 5 3 3 5 6 11 18 15 19 21 27 30 28 25 28 38 41 37 38 37 36 36 38 39 38 40 41 42 43 44 43 42 41 42 38 34 32 31 32 33 31 32 30 30 35 40 46
19 11 4 4 6 4 3 7 10 14 19 25 27 30 29 33 36 46 38 37 41 38 36 36 37 38 38 40 41 42 42 43 43 43 40 39 36 32 29 28 30 31 32 31 30 28 33 40 43
10 6 6 6 5 10 7 24 23 21 18 17 20 23 31 39 48 37 38 40 42 39 37 36 37 38 39 40 41 42 43 43 42 42 39 36 33 31 31 28 28 30 32 29 30 27 31 37 42
Wind_Direction
148 160 163 166 183 187 155 170 191 180 192 185 203 274 191 110 350 315 335 335 338 327 327 331 332 331 329 327 326 327 322 321 321 313 307 297 286 274 262 261 259 258 256 254 249 249 248 244 207
165 166 171 195 234 212 210 195 184 176 176 142 114 316 106 10 15 358 340 342 328 323 324 324 326 327 326 325 327 321 314 318 323 323 316 309 303 289 276 265 257 254 256 254 248 245 249 254 222
179 182 200 223 231 218 204 188 175 152 132 18 26 91 26 353 357 356 347 337 330 327 325 327 329 324 325 326 321 317 317 315 319 321 321 316 311 302 289 274 265 256 254 252 248 243 243 252 202
192 198 227 231 224 196 176 164 144 154 27 359 3 32 354 357 352 349 344 340 332 329 325 325 324 326 324 323 322 316 315 314 315 316 316 314 309 303 298 290 271 263 253 248 246 243 238 241 217
208 221 233 228 215 185 172 144 177 1 345 325 349 355 345 353 349 345 342 342 340 337 335 332 330 328 327 323 319 317 312 309 311 312 311 307 303 298 291 290 292 269 260 248 246 243 242 241 246
224 238 244 238 226 204 198 215 333 334 307 331 343 351 338 344 342 340 337 341 342 336 331 329 328 327 326 324 318 313 310 307 310 311 310 307 301 293 288 286 283 282 261 254 245 238 240 236 240
248 253 264 246 221 222 235 288 318 308 317 326 336 334 330 338 339 334 339 342 341 335 332 330 331 329 328 324 317 314 311 311 312 312 311 309 304 297 287 281 281 274 273 255 249 240 235 238 236
252 253 261 238 228 246 264 292 305 307 315 323 328 308 326 331 328 338 344 343 340 337 334 331 333 334 331 326 322 319 315 315 314 314 313 312 311 305 295 285 279 277 264 271 254 247 236 237 236
251 249 256 254 242 266 287 297 299 306 311 313 319 299 315 320 324 341 347 348 348 346 338 337 338 335 333 329 326 322 319 318 318 314 311 311 311 308 302 293 283 276 272 262 270 258 242 236 237
243 252 255 240 247 273 284 293 305 311 316 300 296 297 297 306 321 343 352 356 352 350 349 346 342 338 335 332 330 323 320 318 316 312 310 310 309 307 305 298 289 282 277 270 273 262 243 247 237
250 248 241 246 260 274 280 306 316 321 317 289 278 289 276 289 311 343 353 354 352 354 351 353 349 346 343 338 333 329 325 320 315 311 311 310 310 307 305 300 293 285 281 278 276 279 248 238 241
250 239 240 254 276 280 285 307 310 317 310 297 273 277 261 268 300 341 351 350 354 359 357 357 353 346 342 336 333 330 326 320 314 310 309 308 307 306 302 300 293 286 280 279 282 287 257 235 234
238 239 253 271 285 304 298 301 311 305 296 299 282 263 247 252 290 336 346 347 1 5 360 355 349 346 342 339 335 329 324 318 313 310 308 306 304 303 301 298 290 282 274 272 273 276 257 235 223
246 269 278 286 296 303 303 304 305 289 277 279 296 252 238 243 271 315 336 356 5 3 359 351 343 341 342 342 336 329 323 320 316 313 309 305 304 301 302 297 290 279 268 264 266 276 263 238 228
294 286 293 292 316 311 312 303 300 292 279 282 286 248 233 234 238 289 319 339 354 353 350 347 341 340 340 339 336 330 324 320 315 314 308 304 302 301 302 301 294 280 265 258 261 270 264 242 230
311 296 318 314 314 316 317 323 298 280 281 280 267 241 223 225 225 267 296 334 348 347 345 343 341 346 347 345 339 332 325 321 316 313 310 306 302 300 300 302 298 285 265 253 256 263 261 238 232
311 316 320 327 321 318 318 322 286 289 289 279 257 238 212 218 217 255 295 333 346 343 340 339 331 331 330 330 334 329 321 319 315 313 311 306 302 299 300 302 302 287 267 249 250 257 256 229 231
340 336 327 328 317 318 315 312 278 266 287 265 243 233 209 208 214 247 295 327 341 336 337 332 328 323 322 326 330 330 326 317 312 311 307 305 302 298 296 300 302 291 269 247 244 248 251 234 231
342 331 324 325 321 321 322 315 225 245 246 156 196 211 203 203 216 254 298 326 332 336 340 332 327 327 329 328 328 327 326 321 317 310 307 305 304 303 299 299 302 297 274 247 241 240 243 238 224
336 328 323 323 324 319 320 302 189 202 244 205 141 181 196 202 230 278 309 319 329 335 337 333 329 331 329 327 327 325 324 325 323 314 309 304 301 301 302 298 302 301 280 249 242 231 235 237 228
331 325 326 320 321 319 337 178 183 235 238 204 144 161 182 208 245 284 301 312 327 332 331 329 327 328 327 325 323 324 323 321 321 320 314 307 301 296 293 291 292 298 288 260 240 233 227 230 229
332 327 323 316 318 304 314 243 227 234 210 202 173 179 207 221 245 280 301 322 326 329 330 328 327 326 324 323 323 322 319 317 320 322 319 313 302 293 289 285 282 287 290 267 243 233 224 225 225
328 330 321 311 308 302 257 265 223 221 202 206 203 224 233 240 256 297 317 326 328 328 329 328 325 325 324 323 324 323 322 323 322 320 317 312 305 294 289 285 283 285 284 271 249 233 226 221 222
338 333 318 304 301 270 216 257 235 219 216 215 221 236 242 249 285 313 322 323 324 327 325 324 322 323 323 323 323 323 323 322 320 318 316 310 307 295 285 283 283 284 282 271 250 236 226 220 220
337 345 323 337 335 227 273 287 256 211 211 227 236 241 239 253 284 303 311 318 320 323 321 320 322 326 324 323 323 323 320 320 318 316 313 310 305 296 283 281 280 281 281 270 253 240 230 221 218
333 352 357 261 277 293 296 256 254 227 225 235 237 239 244 261 284 304 312 318 319 320 319 319 322 322 321 323 323 320 317 318 316 312 311 308 304 297 286 280 276 277 279 270 254 241 233 225 218
325 326 305 264 286 307 252 275 268 248 234 238 243 242 248 262 292 307 317 316 318 318 316 317 319 320 323 325 324 321 319 317 314 311 310 308 304 297 288 280 275 276 276 272 255 243 235 227 222
315 310 300 257 337 294 269 273 252 251 260 267 258 249 255 272 292 309 314 313 316 314 312 315 319 323 327 327 326 323 321 317 316 314 312 307 305 298 291 282 276 275 277 270 260 246 233 230 223
302 296 240 278 262 204 292 239 260 274 285 290 270 258 260 284 288 308 308 309 314 313 313 318 321 327 328 329 327 324 322 319 318 314 312 307 304 298 294 285 280 277 277 270 262 249 234 228 225
287 279 239 304 267 240 265 279 282 277 279 265 263 257 286 292 299 304 307 308 315 314 315 319 325 327 328 331 329 326 324 323 319 314 311 307 303 298 294 288 283 279 277 269 262 249 236 225 224
Height
3148 3148 3149 3150 3154 3151 3149 3151 3151 3151 3152 3152 3151 3151 3151 3150 3150 3153 3149 3146 3144 3143 3142 3139 3138 3136 3136 3134 3133 3130 3130 3129 3128 3128 3126 3125 3125 3125 3125 3127 3128 3129 3129 3129 3129 3131 3132 3130 3130
3149 3149 3150 3150 3151 3150 3150 3150 3150 3151 3150 3150 3150 3150 3150 3150 3149 3148 3147 3145 3143 3141 3139 3138 3137 3134 3133 3132 3131 3130 3129 3128 3127 3125 3125 3124 3123 3122 3121 3122 3124 3124 3126 3126 3127 3128 3129 3127 3126
3149 3150 3151 3150 3149 3149 3149 3149 3149 3149 3149 3149 3149 3149 3149 3149 3147 3146 3145 3143 3141 3141 3140 3138 3136 3135 3133 3131 3130 3128 3127 3126 3125 3124 3122 3122 3120 3120 3118 3117 3119 3120 3121 3122 3124 3125 3124 3122 3116
3149 3150 3151 3149 3148 3148 3148 3148 3148 3147 3148 3148 3147 3148 3148 3147 3146 3145 3143 3142 3140 3138 3137 3135 3133 3132 3131 3129 3127 3126 3124 3123 3122 3121 3119 3118 3118 3117 3115 3114 3113 3115 3116 3118 3120 3122 3121 3119 3113
3149 3149 3149 3147 3147 3147 3147 3147 3146 3146 3147 3147 3148 3147 3146 3144 3143 3143 3142 3140 3139 3137 3135 3133 3131 3130 3128 3127 3125 3123 3123 3121 3119 3117 3116 3115 3113 3113 3112 3111 3109 3109 3111 3113 3115 3118 3118 3118 3118
3148 3148 3147 3146 3146 3145 3145 3145 3146 3145 3146 3146 3146 3145 3144 3143 3142 3141 3140 3139 3137 3135 3133 3132 3131 3129 3128 3126 3123 3121 3119 3117 3115 3114 3112 3111 3109 3108 3107 3106 3105 3104 3104 3107 3109 3112 3114 3115 3113
3147 3147 3146 3145 3145 3144 3144 3144 3144 3144 3144 3145 3145 3144 3143 3142 3141 3140 3139 3138 3136 3133 3131 3130 3128 3126 3124 3123 3121 3119 3117 3114 3111 3109 3107 3106 3105 3104 3102 3101 3100 3100 3099 3101 3102 3105 3108 3111 3111
3146 3146 3145 3144 3144 3143 3143 3143 3143 3143 3143 3143 3143 3142 3141 3140 3139 3139 3137 3136 3134 3132 3130 3127 3125 3123 3122 3120 3118 3116 3115 3112 3109 3106 3103 3101 3099 3098 3096 3095 3094 3094 3095 3095 3097 3099 3102 3105 3107
3145 3145 3143 3143 3143 3142 3142 3142 3142 3142 3142 3141 3141 3140 3139 3138 3138 3137 3136 3134 3132 3130 3128 3125 3123 3122 3121 3118 3116 3114 3111 3108 3104 3102 3100 3097 3094 3091 3088 3088 3087 3086 3087 3089 3090 3092 3094 3097 3100
3143 3143 3142 3142 3141 3141 3141 3141 3141 3141 3140 3139 3138 3137 3137 3137 3136 3135 3133 3131 3130 3129 3127 3124 3122 3120 3118 3116 3113 3111 3107 3104 3100 3098 3096 3093 3089 3085 3082 3080 3080 3079 3080 3081 3083 3084 3086 3090 3094
3141 3141 3140 3140 3140 3140 3139 3139 3138 3137 3137 3136 3136 3136 3135 3135 3134 3132 3131 3130 3129 3128 3126 3123 3120 3117 3114 3111 3108 3105 3103 3100 3098 3095 3091 3088 3084 3080 3076 3073 3072 3072 3072 3073 3074 3076 3078 3083 3085
3140 3139 3139 3139 3138 3138 3137 3137 3136 3135 3134 3133 3133 3133 3133 3133 3132 3131 3130 3129 3128 3125 3123 3119 3116 3113 3110 3107 3105 3103 3099 3096 3093 3090 3086 3083 3079 3075 3071 3068 3065 3064 3064 3065 3064 3064 3069 3073 3076
3138 3138 3137 3137 3136 3136 3135 3133 3133 3132 3131 3131 3130 3130 3131 3130 3129 3128 3127 3126 3124 3121 3120 3117 3115 3112 3108 3104 3101 3098 3095 3091 3088 3084 3080 3076 3073 3069 3065 3062 3059 3057 3056 3058 3059 3059 3059 3063 3068
3137 3136 3136 3135 3134 3133 3132 3131 3129 3129 3128 3127 3127 3127 3127 3128 3127 3126 3125 3123 3121 3119 3116 3113 3112 3109 3105 3101 3098 3094 3090 3086 3082 3078 3074 3069 3065 3063 3059 3056 3051 3049 3048 3049 3051 3050 3049 3053 3059
3136 3136 3134 3133 3132 3130 3129 3129 3126 3125 3124 3122 3122 3122 3123 3124 3124 3123 3123 3121 3119 3116 3113 3109 3108 3105 3101 3098 3095 3091 3086 3082 3077 3073 3068 3064 3060 3056 3053 3049 3045 3040 3040 3041 3042 3042 3042 3044 3050
3135 3134 3133 3132 3129 3128 3126 3125 3123 3120 3119 3118 3117 3118 3119 3121 3121 3121 3120 3118 3115 3112 3108 3106 3104 3101 3098 3095 3091 3087 3082 3077 3072 3067 3064 3059 3056 3051 3046 3042 3037 3033 3031 3033 3033 3034 3035 3037 3042
3133 3132 3131 3129 3127 3125 3123 3122 3117 3115 3113 3113 3112 3113 3115 3117 3118 3117 3116 3114 3111 3108 3105 3103 3100 3097 3094 3090 3086 3081 3076 3071 3067 3063 3058 3054 3050 3046 3040 3035 3031 3027 3025 3026 3026 3028 3029 3031 3035
3132 3130 3128 3126 3124 3122 3119 3116 3113 3111 3110 3108 3109 3110 3112 3113 3114 3114 3113 3111 3108 3106 3103 3099 3096 3091 3088 3084 3080 3075 3071 3066 3061 3056 3052 3047 3042 3039 3034 3029 3024 3022 3019 3020 3020 3022 3024 3024 3028
3131 3128 3125 3123 3119 3115 3112 3110 3109 3108 3108 3107 3107 3107 3109 3110 3111 3111 3110 3108 3105 3103 3099 3094 3090 3086 3081 3077 3073 3069 3066 3062 3056 3050 3045 3041 3036 3032 3028 3023 3018 3015 3013 3014 3015 3016 3017 3019 3022
3129 3126 3123 3120 3117 3112 3108 3105 3106 3106 3105 3105 3105 3105 3107 3108 3109 3108 3106 3103 3102 3099 3095 3091 3087 3081 3075 3070 3065 3061 3058 3056 3052 3046 3040 3033 3029 3024 3021 3017 3012 3009 3008 3008 3010 3011 3011 3014 3016
3127 3124 3121 3117 3112 3108 3105 3103 3103 3104 3103 3103 3103 3103 3105 3106 3105 3103 3101 3100 3097 3093 3090 3086 3081 3076 3070 3064 3059 3054 3049 3045 3042 3039 3034 3027 3021 3016 3012 3008 3005 3002 3002 3001 3003 3005 3006 3008 3013
3125 3122 3118 3113 3110 3108 3106 3103 3101 3100 3100 3101 3100 3101 3101 3100 3100 3098 3096 3094 3091 3088 3083 3079 3074 3069 3064 3058 3052 3046 3041 3035 3032 3027 3023 3020 3014 3009 3005 3000 2996 2993 2994 2995 2995 2999 3001 3004 3007
3124 3120 3114 3109 3106 3105 3103 3103 3096 3096 3097 3096 3096 3096 3096 3095 3095 3093 3091 3088 3085 3081 3077 3072 3068 3062 3057 3052 3046 3039 3032 3025 3021 3017 3014 3010 3006 3001 2997 2992 2989 2985 2984 2987 2988 2990 2994 2997 3000
3121 3115 3109 3105 3104 3104 3100 3100 3093 3093 3093 3092 3092 3092 3091 3091 3090 3088 3086 3083 3080 3075 3070 3066 3061 3057 3051 3045 3038 3031 3024 3018 3012 3009 3005 3001 2997 2993 2988 2984 2981 2978 2976 2977 2979 2981 2985 2990 2993
3120 3116 3110 3109 3107 3104 3100 3098 3090 3089 3089 3089 3088 3088 3088 3086 3085 3083 3081 3078 3074 3069 3064 3059 3053 3048 3043 3036 3030 3023 3017 3010 3004 2999 2995 2991 2987 2984 2979 2975 2973 2971 2968 2968 2970 2972 2976 2982 2985
3118 3118 3117 3121 3113 3104 3099 3092 3087 3087 3087 3086 3086 3085 3084 3082 3080 3077 3074 3070 3066 3061 3056 3051 3046 3041 3036 3028 3022 3017 3009 3001 2996 2990 2985 2981 2976 2973 2970 2967 2964 2962 2960 2958 2961 2965 2967 2971 2978
3117 3117 3116 3113 3109 3106 3094 3089 3086 3083 3083 3083 3083 3081 3079 3077 3074 3072 3069 3064 3059 3055 3050 3044 3039 3034 3027 3020 3014 3009 2999 2992 2987 2982 2977 2971 2967 2962 2960 2957 2955 2954 2953 2951 2951 2955 2959 2962 2968
3116 3116 3113 3111 3113 3109 3091 3086 3078 3077 3078 3079 3078 3076 3074 3072 3070 3067 3063 3058 3054 3049 3044 3039 3032 3026 3020 3013 3006 2999 2992 2984 2977 2971 2967 2961 2957 2954 2951 2949 2946 2944 2945 2943 2942 2946 2950 2954 2960
3112 3112 3111 3112 3110 3107 3102 3081 3077 3076 3075 3075 3073 3072 3070 3068 3063 3061 3057 3052 3046 3042 3036 3031 3025 3019 3013 3007 2999 2990 2983 2975 2968 2962 2958 2952 2948 2944 2942 2940 2938 2935 2936 2935 2934 2936 2940 2944 2949
3107 3108 3108 3109 3106 3102 3097 3070 3072 3070 3069 3069 3068 3068 3066 3061 3057 3053 3049 3044 3038 3033 3028 3023 3017 3010 3005 2997 2990 2981 2973 2965 2959 2954 2949 2944 2940 2937 2934 2932 2930 2928 2927 2927 2925 2926 2929 2933 2939